Lid_Strength_Index
6 7 8 9 9 10 10 11 12 14 13 13 13 12 12 12 11 10 12 9 10 10 9 8 9 8 7 7 7 7 7 7 8 7 7 6 6 6
7 7 8 9 10 10 11 11 11 11 13 12 13 13 11 11 10 11 11 8 10 10 10 9 8 7 7 7 7 8 8 8 8 7 7 7 6 6
7 8 9 10 10 10 11 12 12 11 13 13 12 12 13 12 12 11 11 12 11 9 9 9 8 8 8 7 7 8 8 8 8 8 7 7 7 6
9 9 9 9 11 11 11 12 12 11 12 14 13 13 13 13 12 13 12 10 11 9 9 8 8 8 8 8 8 8 8 8 8 8 8 7 7 7
9 10 10 10 11 12 12 12 11 11 12 12 13 12 13 13 13 13 13 12 9 8 9 8 8 8 8 8 8 8 8 8 8 8 8 8 7 7
8 9 9 10 11 11 10 12 12 12 12 13 13 14 14 14 14 15 15 12 12 10 9 9 9 8 9 8 9 8 8 8 8 8 8 8 8 7
8 10 11 10 10 11 11 12 12 12 12 13 14 14 15 15 16 15 15 14 13 13 12 12 12 12 12 10 10 9 9 8 8 8 8 8 8 8
10 11 12 11 12 13 12 12 11 12 13 13 14 15 15 15 15 16 15 15 16 13 13 13 12 14 13 13 10 9 9 9 8 8 8 8 8 8
11 12 12 12 12 14 14 14 13 13 12 12 14 14 15 15 15 16 16 15 16 14 13 14 13 15 14 12 11 10 9 9 9 9 9 9 9 8
11 12 12 13 13 14 14 14 14 13 13 11 12 13 14 15 15 15 15 15 15 14 13 17 14 15 15 13 11 10 9 9 9 9 9 9 9 9
10 11 12 13 13 12 14 15 15 15 14 13 13 13 14 14 15 15 16 17 19 18 14 16 18 16 16 14 13 10 10 10 10 10 9 9 9 10
11 11 12 12 12 12 14 15 15 15 17 17 17 16 16 15 14 15 15 18 18 18 14 17 19 17 18 15 15 13 13 12 11 10 9 10 10 12
13 12 12 13 12 12 12 14 14 15 17 17 17 18 18 16 16 16 15 16 18 17 15 15 18 18 18 17 16 15 15 13 13 12 11 11 10 11
11 12 13 12 12 12 13 13 12 15 17 17 17 16 16 16 15 15 14 14 14 15 14 14 17 17 19 19 16 15 15 14 14 15 13 12 11 11
11 11 12 12 12 13 13 13 15 16 16 16 15 16 15 15 14 14 14 13 13 13 12 13 15 16 18 18 16 15 15 15 15 14 14 14 14 13
14 13 12 13 15 15 15 15 15 15 15 15 16 16 14 14 15 15 15 15 15 15 14 13 14 15 18 16 16 15 15 18 15 14 14 14 13 13
12 13 14 15 16 16 16 16 16 16 15 15 15 14 14 14 15 15 15 15 16 16 16 15 14 14 15 15 16 16 17 16 15 14 15 15 14 14
12 13 14 14 15 15 15 16 16 16 15 15 15 14 14 14 15 15 16 16 16 16 17 16 16 15 15 15 14 18 16 16 15 15 15 16 16 14
11 12 12 13 14 14 14 15 16 15 14 15 14 13 13 14 16 15 16 16 16 16 16 16 17 17 22 23 16 13 17 15 15 16 15 16 16 15
10 11 11 11 12 12 13 14 13 14 14 14 14 13 13 15 16 16 16 17 17 17 17 18 17 17 21 22 21 15 13 15 16 16 17 15 15 13
10 10 10 10 11 11 11 12 13 13 13 14 14 13 13 14 16 16 16 17 17 17 17 18 16 16 16 16 19 18 15 13 13 15 16 17 17 17
9 9 9 9 9 10 11 11 12 12 13 13 13 14 13 13 15 16 16 17 17 17 17 17 16 16 16 16 18 19 17 15 14 13 13 13 17 19
9 9 9 9 9 9 10 10 11 11 11 12 12 13 13 14 14 15 15 16 16 17 17 18 16 17 16 16 18 18 17 18 17 17 16 13 13 12